This is the latest recevied weather packets stored in our database for station/object K7KRJ-10. If no packets are shown the sender has not sent any weather packets the latest 10 day(s).
| Time | Temp. | Humidity | Pressure | Rain* | Wind** | Luminosity | Snow |
|---|---|---|---|---|---|---|---|
| 1788135513 | 103° F | 28% | 756.1 mmHg | 0 in | - | 213 W/m² | - |
| 1788134612 | 103° F | 28% | 756.2 mmHg | 0 in | - | 270 W/m² | - |
| 1788133706 | 104° F | 28% | 756.4 mmHg | 0 in | - | 333 W/m² | - |
| 1788132805 | 104° F | 27% | 756.4 mmHg | 0 in | - | 392 W/m² | - |
| 1788131904 | 104° F | 28% | 756.6 mmHg | 0 in | - | 451 W/m² | - |
| 1788130999 | 104° F | 27% | 756.8 mmHg | 0 in | - | 511 W/m² | - |
| 1788130094 | 104° F | 28% | 756.7 mmHg | 0 in | - | 564 W/m² | - |
| 1788129194 | 103° F | 28% | 757.1 mmHg | 0 in | - | 623 W/m² | - |
| 1788128290 | 104° F | 27% | 757.2 mmHg | 0 in | - | 687 W/m² | - |
| 1788127386 | 104° F | 27% | 757.5 mmHg | 0 in | - | 725 W/m² | - |
| 1788126485 | 104° F | 27% | 757.8 mmHg | 0 in | - | 773 W/m² | - |
| 1788125580 | 103° F | 27% | 757.9 mmHg | 0 in | - | 827 W/m² | - |
| 1788124677 | 104° F | 27% | 758.1 mmHg | 0 in | - | 856 W/m² | - |
| 1788123777 | 102° F | 29% | 758.2 mmHg | 0 in | - | 881 W/m² | - |
| 1788122877 | 104° F | 28% | 758.5 mmHg | 0 in | - | 909 W/m² | - |
| 1788121974 | 102° F | 28% | 758.8 mmHg | 0 in | - | 930 W/m² | - |
| 1788121068 | 102° F | 29% | 759.1 mmHg | 0 in | - | 952 W/m² | - |
| 1788120163 | 101° F | 30% | 759.4 mmHg | 0 in | - | 958 W/m² | - |
| 1788119262 | 100° F | 30% | 759.3 mmHg | 0 in | - | 965 W/m² | - |
| 1788118357 | 98° F | 32% | 759.5 mmHg | 0 in | - | 964 W/m² | - |
| 1788117456 | 99° F | 32% | 759.8 mmHg | 0 in | - | 959 W/m² | - |
| 1788116551 | 99° F | 32% | 759.9 mmHg | 0 in | - | 947 W/m² | - |
| 1788115651 | 98° F | 32% | 760.1 mmHg | 0 in | - | 928 W/m² | - |
| 1788114746 | 97° F | 33% | 760.3 mmHg | 0 in | - | 907 W/m² | - |
| 1788113845 | 98° F | 33% | 760.2 mmHg | 0 in | - | 878 W/m² | - |
* Rain latest hour (hover to see other rain measurements)
** Current wind speed in m/s (hover to see current wind gust speed)